Weather in Razvilnoye

Russia / Rostov Oblast     46°14′19″N   41°17′22″E
temp.,
°C
wind,
m/s
gust,
m/s
humid.,
%
clouds,
%
prec.,
mm/h
press.,
hPa
HPBL,
m
4 july, mon
mon400:00+18nnw224818 0.0 101512
03:00+17wnw22535 0.0 101514
06:00+18wnw23565 0.0 101588
09:00+25nw34400 0.0 10151024
12:00+29wnw3432100 0.0 10142825
15:00+29nw5531100 0.0 10132698
18:00+26w224067 0.0 1013123
21:00+23w33460 0.0 101329
5 july, tue
tue500:00+22wnw3549100 0.0 101481
03:00+19nw33620 0.0 101435
06:00+20nne38650 0.0 1015225
09:00+27ene56400 0.0 10151136
12:00+30ne45300 0.0 10152574
15:00+31nne65242 0.0 10143009
18:00+30ene55261 0.0 10132463
21:00+22ene411350 0.0 1015199
6 july, wed
wed600:00+20ene47360 0.0 101694
03:00+17ene35460 0.0 101671
06:00+18e38480 0.0 1016200
09:00+26e56280 0.0 10161053
12:00+29e67240 0.0 10162188
15:00+31e67220 0.0 10142350
18:00+29e67230 0.0 10142149
21:00+22e511330 0.0 1015183
7 july, thu
thu700:00+19e413400 0.0 1015226
03:00+17e412490 0.0 1015208
06:00+18e512470 0.0 1015319
09:00+26ese811300 0.0 10151281
12:00+30e910240 0.0 10141945
15:00+32e810210 0.0 10122376
18:00+31e79240 0.0 10122387
21:00+23e412370 0.0 1013225
8 july, fri
fri800:00+20ese514440 0.0 1013352
03:00+16e412530 0.0 1013274
06:00+18e513600 0.0 1014396
09:00+26ese812360 0.0 10131317
12:00+32ese911250 0.0 10122322
15:00+34ese810220 0.0 10103069
18:00+33ese892130 0.0 10103257
21:00+28ese715263 0.0 1011571